Regional Weather Roundup
Issued by NWS

Home | Current Version | Previous Version | Graphics & Text | Print | Product List | Glossary On
Versions: 1 2 3 4 5 6 7 8 9 10 11 12 13 14 15 16 17 18 19 20 21 22 23 24 25 26 27 28 29 30 31 32 33 34 35 36 37 38 39 40 41 42 43 44 45 46 47 48 49 50
000
ASUS43 KMPX 020601
RWRMN
WEATHER ROUNDUP FOR MINNESOTA
NATIONAL WEATHER SERVICE TWIN CITIES/CHANHASSEN MN
100 AM CDT TUE SEP 02 2014


NOTE: "FAIR" INDICATES FEW OR NO CLOUDS BELOW 12,000 FEET WITH NO
SIGNIFICANT WEATHER AND/OR OBSTRUCTIONS TO VISIBILITY. N/A MEANS
CURRENT SKY AND/OR WEATHER CONDITIONS ARE NOT AVAILABLE.

MNZ060>063-068>070-020700-
   Twin Cities Metro

CITY           SKY/WX    TMP DP  RH WIND       PRES   REMARKS
TWIN CITIES    FAIR      65  59  81 W8        29.82R
6HR MIN TEMP:  65; 6HR MAX TEMP:  75;

ST PAUL        FAIR      62  60  93 S3        29.82R
CRYSTAL        MOCLDY    65  58  78 NW5       29.80R
BLAINE         MOCLDY    66  61  82 W7        29.83R
LAKEVILLE      FAIR      63  57  82 SW5       29.82S
EDEN PRAIRIE   MOCLDY    64  59  83 W5        29.81R
6HR MIN TEMP:  63; 6HR MAX TEMP:  74;

SOUTH ST PAUL  FAIR      63  58  85 CALM      29.81S
LAKE ELMO      FAIR      61  57  88 SW5       29.82S
$$
MNZ001>005-007-008-013>017-022>024-027-028-020700-
   Northwest Minnesota

CITY           SKY/WX    TMP DP  RH WIND       PRES   REMARKS
BEMIDJI        FAIR      53  49  86 W5        29.78S
HALLOCK        FAIR      52  48  87 CALM      29.73F
ROSEAU           N/A     57  52  82 SW7       29.73S
WARROAD        FAIR      54  50  87 SW9       29.73S
THIEF RVR FALL FAIR      55  52  88 SW9       29.77S
CROOKSTON      FAIR      52  52 100 S3        29.78S
FOSSTON        FAIR      48  46  93 S6        29.80S
DETROIT LAKES  FAIR      54  52  94 S6        29.83R
MOORHEAD       FAIR      57  57 100 SW3       29.82R
PARK RAPIDS    FAIR      51  50  96 CALM      29.81R
MAHNOMEN       FAIR      51  50  98 S7        29.80S
$$
MNZ006-009>011-018-025>026-020700-
   North Central Minnesota

CITY           SKY/WX    TMP DP  RH WIND       PRES   REMARKS
BAUDETTE       FAIR      54  51  90 SW7       29.72F
FLAG ISLAND    FAIR      57  54  88 SW13      29.69R
INTL FALLS     FAIR      49  48  97 SW6       29.73S
6HR MIN TEMP:  47; 6HR MAX TEMP:  65; 6HR PCP:  0.01;

WASKISH        FAIR      55  54  94 CALM      29.75F
BIG FORK       FAIR      48  46  93 CALM      29.78S
LONGVILLE      FAIR      54  52  94 CALM      29.79R
GRAND RAPIDS   FAIR      57  52  82 W3        29.78F
CRANE LAKE     FAIR      48  48 100 S5        29.76R
ORR            FAIR      52  48  87 CALM      29.73F
COOK           FAIR      54  52  94 W3        29.76S
WALKER         FAIR      52  50  94 W3        29.79R
$$
MNZ012-019>021-037-020700-
   Northeast Minnesota

CITY           SKY/WX    TMP DP  RH WIND       PRES   REMARKS
DULUTH         FAIR      56  50  80 W7        29.77R
6HR MIN TEMP:  55; 6HR MAX TEMP:  68;

ELY            FAIR      52  48  87 CALM      29.75S
HIBBING        FOG       48  46  93 CALM      29.77S VSB 1/2
EVELETH        FAIR      57  54  88 W6        29.77S
DULUTH HARBOR  FAIR      61  55  82 SW8       29.76S
TWO HARBORS    FAIR      57  50  77 NW3       29.73F
SILVER BAY     FAIR      55  54  94 CALM      29.73S
GRAND MARAIS     N/A     59  53  80 VRB3      29.70R
G MARAIS ARPRT FAIR      54  48  82 W8        29.75R
$$
MNZ029>031-032-039>041-046>048-054>057-064-020700-
   West Central Minnesota

CITY           SKY/WX    TMP DP  RH WIND       PRES   REMARKS
FERGUS FALLS   FAIR      55  54  94 CALM      29.83R
WHEATON        FAIR      55  54  94 SW5       29.86R
MORRIS         FAIR      61  57  88 W5        29.84R
ALEXANDRIA     FAIR      57  54  89 SW6       29.84R
ELBOW LAKE     FAIR      56  55  93 SW3       29.83R
WADENA         FAIR      52  52 100 CALM      29.81S
GLENWOOD       FAIR      59  55  88 W7        29.84R
APPLETON       FAIR      61  55  82 W6        29.85R
BENSON         FAIR      59  55  88 NW3       29.84R
ORTONVILLE     FAIR      63  54  72 W8        29.85R
MADISON        FAIR      66  55  68 W9        29.85S
WILLMAR        FAIR      61  55  82 W6        29.85S
$$
MNZ033>034-036-042>043-049>051-058-059-020700-
   Central Minnesota

CITY           SKY/WX    TMP DP  RH WIND       PRES   REMARKS
ST CLOUD       FAIR      60  56  86 S5        29.82R
6HR MIN TEMP:  60; 6HR MAX TEMP:  74;

SAUK CENTRE    FAIR      54  54 100 S3        29.83R
PAYNESVILLE    HVY RAIN  58  55  90 CALM      29.84R
AITKIN         HAZE      55  48  76 CALM      29.78R VSB 1/2
PINE RIVER     FAIR      54  54 100 CALM      29.84S
BRAINERD       FAIR      55  53  93 W5        29.81R
STAPLES        FAIR      52  52 100 CALM      29.81R
LONG PRAIRIE   FAIR      54  52  94 S5        29.82S
LITTLE FALLS   FAIR      54  52  94 CALM      29.81R
LITCHFIELD     MOCLDY    64  59  82 W3        29.84S
BUFFALO        CLOUDY    63  57  80 CALM      29.83R
MAPLE LAKE     FAIR      61  59  91 CALM      29.83R
$$
MNZ037-044-045-052-053-020700-
   East Central Minnesota

CITY           SKY/WX    TMP DP  RH WIND       PRES   REMARKS
PRINCETON      FAIR      57  55  94 S3        29.81S
MORA           FAIR      55  52  88 SW6       29.80S
CAMBRIDGE      FAIR      61  52  72 CALM      29.79R
RUSH CITY      FAIR      57  55  95 CALM      29.80S
MOOSE LAKE     FAIR      55  52  88 NW3       29.77R
HINCKLEY       FAIR      54  54 100 CALM      29.78R
CLOQUET        FAIR      55  52  88 W6        29.78S
MCGREGOR       FAIR      55  54  94 CALM      29.80R
$$
MNZ071>073-080-081-089-090-097-098-020700-
   Southwest Minnesota

CITY           SKY/WX    TMP DP  RH WIND       PRES   REMARKS
MONTEVIDEO     FAIR      61  54  77 CALM      29.86R
GRANITE FALLS  FAIR      59  55  88 SW8       29.87R
CANBY          MOCLDY    64  52  66 W12       29.87S
MARSHALL       FAIR      63  50  63 W13       29.85S
REDWOOD FALLS  MOCLDY    63  56  78 W7        29.85R
OLIVIA         FAIR      61  55  82 W3        29.84S
PIPESTONE      FAIR      63  54  72 NW9       29.89F
WINDOM         MOCLDY    61  57  88 W3        29.87S
WORTHINGTON    FAIR      61  55  82 W9        29.89S
JACKSON        MOCLDY    61  55  82 CALM      29.88S
TRACY          FAIR      64  55  72 W6        29.87S
SLAYTON        FAIR      62  53  72 W8        29.89S
$$
MNZ065>067-074>077-082>085-091>093-020700-
   South Central Minnesota

CITY           SKY/WX    TMP DP  RH WIND       PRES   REMARKS
MANKATO        FAIR      61  54  77 SW7       29.84S
NEW ULM        FAIR      61  59  94 SW6       29.84S
ST JAMES       FAIR      61  57  88 CALM      29.87R
FAIRMONT       FAIR      57  54  88 S6        29.86S
GLENCOE        FAIR      63  56  79 W5        29.83R
FARIBAULT      FAIR      64  55  72 S6        29.85S
OWATONNA       FAIR      61  55  82 SW3       29.85S
WASECA         FAIR      55  52  88 CALM      29.87S
ALBERT LEA     FAIR      61  59  94 CALM      29.87S
$$
MNZ078>079-086>088-094>096-020700-
   Southeast Minnesota

CITY           SKY/WX    TMP DP  RH WIND       PRES   REMARKS
ROCHESTER      FAIR      58  55  90 S5        29.87R
6HR MIN TEMP:  58; 6HR MAX TEMP:  70;

RED WING       FAIR      57  57 100 CALM      29.82R
STANTON        FAIR      61  57  88 S3        29.82S
DODGE CENTER   FAIR      57  55  94 SW6       29.86S
WINONA         FAIR      61  59  94 CALM      29.86R
AUSTIN         FAIR      57  55  94 CALM      29.87R
PRESTON        FAIR      59  59 100 CALM      29.88R
$$
ABBREVIATIONS USED IN REMARKS
   TC - TEMPERATURES IN CELSIUS
  WCI - WIND CHILL INDEX
   HX - HEAT INDEX
  VSB - VISIBILITY
$$



USA.gov is the U.S. government's official web portal to all federal, state and local government web resources and services.